sat.trackr.live / text

‹ back to catalog

STARLINK-4364

NORAD 53230 · 2022-084AT

PAYLOAD ACTIVE UNKNOWN

§ Identity

Operator
Country
US
Launch date
2022-07-22
Launch site
AFWTR
Launch vehicle
Mass (kg)
RCS (m²)

Purposes: comms

External: N2YO · Heavens-Above · Gunter

§ Orbital elements

Epoch: 2026-09-20T02:37:29.663040Z

Period
93.91 min
Inclination
97.2844°
Eccentricity
0.0001145
Mean motion
15.33441660 rev/d
Perigee alt
464.8 km
Apogee alt
466.3 km
Semi-major
6,843.7 km
B*
6.4759e-5
RAAN
318.8226°
Arg perigee
93.0337°
Mean anomaly
267.1037°
Rev number
22,869

§ Raw data

STARLINK-43641 53230U 22084AT  26263.10937110  .00002016  00000+0  64759-4 0  99932 53230  97.2844 318.8226 0001145  93.0337 267.1037 15.33441660228691

JSON: /api/v1/satellites/53230 · /tle

For live sub-satellite position, see the globe view (requires WebGL).

§ Visibility from observer

Set your observer location to see the next 7 days of passes ≥ 10°. The values pass through the URL so the page stays shareable.

No JS? Fill the form by hand. The geolocation button needs JavaScript.